ESSA 5

Satellite information

Favourite Embed

Satellite Type and Status

PAYLOADIN ORBIT

Key statistics

Satellite ESSA 5 at a glance.

Uptime

21376

Days in orbit

Revolutions

≈ 12.7

Per day

Orbit

SSO

Sun Synchronous Orbit

Inclination

102.0

Latest

Satellite identification and parameters

Extended collection of information and parameters for ESSA 5.

Object identification

Identified? True

Debris? False

Object name: ESSA 5

International designator: 1967-036A

Object number (NORAD): 2757

Object ID (CCSDS): 2757

Country: UNITED STATES OF AMERICA (US)

Current information (Y/N): Y

RCS size: MEDIUM

Orbital parameters

Period: 113.516 minutes

Inclination: 101.9766 deg

SMA: 7766.036 km

Apoapsis: 1421.126 km

Periapsis: 1354.676 km

RAAN: 109.6495 deg

Eccentricy: 0.0042782

Argument of periapsis: 348.2969 deg

Mean anomaly: 138.839 deg

Mean motion: 12.68538521 rev/day

Mean motion (dot): -0.00000029 rev/day2

B* drag term: 0.00010120621 1/REarth

Two-line elements (TLE)

Creation date: Oct. 28, 2025, 2:18 a.m.

Reference frame: TEME

Reference center: EARTH

Epoch: Oct. 27, 2025, 10:10 p.m. UTC

TLE line 0: 0 ESSA 5

TLE line 1: 1 02757U 67036A 25300.92408372 -.00000029 00000-0 10121-3 0 9998

TLE line 2: 2 02757 101.9766 109.6495 0042782 348.2969 138.8390 12.68538521709527

Live tracking on map

Real-time ground track for satellite ESSA 5.

In-orbit conjunctions

There are no conjunctions computed for ESSA 5, at the moment. Check back to stay up to date, as we update our databases every day.

Go to all conjunctions

Associated space launch

The ESSA series was the second generation of US meterological satellites after the TIROS (Television & Infra-Red Observation Satellite) series. They were also called OT (Operational TIROS), TOS (TIROS Operational Satellite).

ESSA 5 was lifted into orbit during the mission ‘Thor Delta E | ESSA 5’, on board a Thor Delta E space rocket.

The launch took place on April 20, 1967, 11:21 a.m. from Space Launch Complex 2E.

For more information about the launch, click the button.

Launch to space Thor Delta E | ESSA 5
Thor Delta E | ESSA 5

Agency: N/A

Status: Launch Successful

Launch date: April 20, 1967, 11:21 a.m. UTC

Rocket: Thor Delta E

Launch pad: Space Launch Complex 2E

Location: Vandenberg SFB, CA, USA

...

Latest news about this satellite

There are no fresh news available about this satellite. Check back as we update our databases every day.


Newsletter sign-up

Weekly statistics, charts and insights to help you stay on top of the space industry.